Regional Weather Roundup
Issued by NWS Upton, NY

Current Version | Previous Version | Text Only | Print | Product List | Glossary On
Versions: 1 2 3 4 5 6 7 8 9 10 11 12 13 14 15 16 17 18 19 20 21 22 23 24 25 26 27 28 29 30 31 32 33 34 35 36 37 38 39 40 41 42 43 44 45 46 47
000 ASUS41 KOKX 020805 RWROKX REGIONAL WEATHER ROUNDUP NATIONAL WEATHER SERVICE NEW YORK NY 400 AM EDT THU OCT 02 2014 NOTE: "FAIR" INDICATES FEW OR NO CLOUDS BELOW 12,000 FEET WITH NO SIGNIFICANT WEATHER AND/OR OBSTRUCTIONS TO VISIBILITY. NYZ071-072-176-178-NJZ106-104-020900- NEW YORK CITY METRO AREA CITY SKY/WX TMP DP RH WIND PRES REMARKS CENTRAL PARK CLOUDY 61 54 77 NE7 30.11F LAGUARDIA APRT CLOUDY 61 55 81 N8 30.08S KENNEDY INTL CLOUDY 61 55 81 N12 30.08F NEWARK/LIBERTY CLOUDY 60 58 92 N7 30.08S BRNX BOT. GARD N/A 59 54 82 NE1 30.10S TETERBORO LGT RAIN 61 56 83 N5 30.07F $$ NYZ177-179-078>081-020900- LONG ISLAND NEW YORK CITY SKY/WX TMP DP RH WIND PRES REMARKS FARMINGDALE CLOUDY 60 57 89 NE9 30.07S ISLIP CLOUDY 60 56 86 NE12 30.04S SHIRLEY CLOUDY 59 56 89 VRB7 30.07S WESTHAMPTON CLOUDY 60 56 86 N8G18 30.07S MONTAUK POINT N/A 59 58 96 N10 30.06S $$ NYZ052-065-067-020900- HUDSON VALLEY CITY SKY/WX TMP DP RH WIND PRES REMARKS WHITE PLAINS CLOUDY 58 53 84 N3 30.08S NEWBURGH NOT AVBL MONTGOMERY CLOUDY 59 56 89 N5 30.11R POUGHKEEPSIE LGT RAIN 60 57 89 CALM 30.10R ALBANY CLOUDY 59 56 89 NE3 30.13R $$ NJZ001-105-106-008-010-013-015-019>022-104-020900- NEW JERSEY CITY SKY/WX TMP DP RH WIND PRES REMARKS NEWARK/LIBERTY CLOUDY 60 58 92 N7 30.08S TETERBORO LGT RAIN 61 56 83 N5 30.07F CALDWELL CLOUDY 60 55 83 NE3 30.09F MORRISTOWN CLOUDY 61 57 88 CALM 30.09S SOMERVILLE CLOUDY 61 56 83 N3 30.07F LINDEN CLOUDY 64 60 86 NE6 30.10S SUSSEX CLOUDY 60 56 86 N3 30.11S ANDOVER N/A 58 57 97 NE6 30.10F TRENTON CLOUDY 60 56 86 NE7 30.08S MILLVILLE MOCLDY 59 57 93 CALM 30.07S ATLANTIC CITY CLOUDY 59 57 93 N6 30.06S WRIGHTSTOWN CLOUDY 60 58 96 N7 30.05S TOMS RIVER CLOUDY 61 57 88 N3 30.07S BELMAR CLOUDY 59 54 82 N7 30.07S $$ PAZ047>061-062-071-020900- EASTERN PENNSYLVANIA CITY SKY/WX TMP DP RH WIND PRES REMARKS PHILADELPHIA CLOUDY 64 56 75 NE3 30.08S ALLENTOWN CLOUDY 62 56 80 NE8 30.10S SCRANTON CLOUDY 57 54 89 CALM 30.11S $$ CTZ002-004>006-009-010-012-RIZ004-006-007-MAZ004-011-015-020900- SOUTHERN NEW ENGLAND IN CT CITY SKY/WX TMP DP RH WIND PRES REMARKS BRADLEY INTL CLOUDY 58 55 90 N8 30.09F HARTFORD CLOUDY 58 55 90 N10 30.09S DANBURY CLOUDY 58 53 84 NE5 30.11R WTRBRY/OXFORD CLOUDY 55 52 88 NE7 30.10S BRIDGEPORT CLOUDY 59 56 89 N9 30.08S MERIDEN CLOUDY 58 55 90 VRB7 30.09S NEW HAVEN CLOUDY 61 56 83 N9 30.08S CHESTER CLOUDY 57 55 94 NE8 30.08S GROTON LGT RAIN 57 56 96 NE6 30.06R WILLIMANTIC LGT RAIN 58 54 86 NE7 30.09S IN RI CITY SKY/WX TMP DP RH WIND PRES REMARKS PROVIDENCE LGT RAIN 57 56 96 N15 30.08R BLOCK ISLAND CLOUDY 59 55 88 NE16G25 30.04S WESTERLY RAIN 58 56 93 N5 30.06S FOG IN MA CITY SKY/WX TMP DP RH WIND PRES REMARKS BOSTON LGT RAIN 55 54 96 NE20 30.11S WORCESTER LGT RAIN 53 52 96 NE10 30.11S WESTFIELD CLOUDY 57 55 93 N8 30.11S PROVINCETOWN CLOUDY 59 55 88 NE16G23 30.07S NANTUCKET CLOUDY 61 59 93 NE18G24 29.98S $$ ANZ330-335-338-340-345-350-353-355-020900- COASTAL MARINE OBSERVATIONS STATION/POSITION TIME SKY/WX TEMP WIND PRES VSBY WAVE AIR SEA DIR/SP/G HT/PER (UTC) (F) (DEG/KT/KT) (MB) (MI) (FT/S) NY HARB ENTRANCE NOT AVBL 4S FIRE IS 0800 67 N/A 4/ 7 20S FIRE ISLAND 0800 62 67 30/ 17/ 21 1016.8 6/ 8 23SW MTP 0800 N/A 7/ 7 HUDSON CANYON 0800 66 69 20/ 21/ 27 1014.8 9/ 8 EXECUTION ROCKS 0800 62 68 10/ 12/ 16 N/A WESTERN LI SOUND 0800 61 40/ 12/ 16 N/A 2/ 4 CENTRAL LI SOUND 0800 60 68 50/ 16/ 17 N/A 2/ 3 EASTERN LI SOUND 0700 60 65 20/ 12/ 16 N/A ROBBINS REEF 0800 60 360/ 10/ 12 1017.2 $$ >>>>>>>>>>>>>>>>>>>>>>>>>>>> KEY <<<<<<<<<<<<<<<<<<<<<<<<<<< > < > SKY/WX - SKY CONDITION/PRESENT WEATHER < > TMP - TEMPERATURE IN FAHRENHEIT < > DP - DEWPOINT IN FAHRENHEIT < > RH - RELATIVE HUMIDITY IN PERCENT < > WIND - DIRECTION AND SPEED IN MPH < > PRES - MEAN SEA LEVEL PRESSURE IN INCHES OF HG < > WCI - WIND CHILL INDEX < > VSB - VISIBILITY IN MILES < > HX - HEAT INDEX < > TC - TEMPERATURE IN CELSIUS < > VRB - VARIABLE WIND DIRECTION < > < >>>>>>>>>>>>>>>>>>>>>>>>>>>> KEY <<<<<<<<<<<<<<<<<<<<<<<<<<<

USA.gov is the U.S. government's official web portal to all federal, state and local government web resources and services.